Gewässerkundlicher Dienst Bayern

Aktuelle Messwerte Röckersbühl

Globalstrahlung vom 02.05.2026 bis zum 08.05.2026
Hinweis
Lufttemperatur- und Luftfeuchtegeber defekt
Globalstrahlung vom 02.05.2026 bis zum 08.05.2026
DatumGlobalstrahlung [W/m²]
08.05.2026 21:000,0
08.05.2026 20:0015,2
08.05.2026 19:00104,7
08.05.2026 18:00259,3
08.05.2026 17:00460,8
08.05.2026 16:00649,0
08.05.2026 15:00745,8
08.05.2026 14:00828,7
08.05.2026 13:00677,8
08.05.2026 12:00808,2
08.05.2026 11:00774,5
08.05.2026 10:00552,2
08.05.2026 09:00670,7
08.05.2026 08:00389,5
08.05.2026 07:00172,2
08.05.2026 06:0039,7
08.05.2026 05:000,0
08.05.2026 04:000,0
08.05.2026 03:000,0
08.05.2026 02:000,0
08.05.2026 01:000,0
08.05.2026 00:000,0
07.05.2026 23:000,0
07.05.2026 22:000,0
07.05.2026 21:000,0
07.05.2026 20:006,5
07.05.2026 19:0074,0
07.05.2026 18:00116,3
07.05.2026 17:00232,5
07.05.2026 16:00163,0
07.05.2026 15:00204,3
07.05.2026 14:00255,5
07.05.2026 13:00241,8
07.05.2026 12:00402,2
07.05.2026 11:00195,7
07.05.2026 10:00227,7
07.05.2026 09:00125,5
07.05.2026 08:0090,0
07.05.2026 07:00122,3
07.05.2026 06:0062,0
07.05.2026 05:000,0
07.05.2026 04:000,0
07.05.2026 03:000,0
07.05.2026 02:000,0
07.05.2026 01:000,0
07.05.2026 00:000,0
06.05.2026 23:000,0
06.05.2026 22:000,0
06.05.2026 21:000,0
06.05.2026 20:000,0
06.05.2026 19:0056,2
06.05.2026 18:0097,7
06.05.2026 17:00196,8
06.05.2026 16:00342,3
06.05.2026 15:00520,7
06.05.2026 14:00749,8
06.05.2026 13:00392,7
06.05.2026 12:00515,7
06.05.2026 11:00535,8
06.05.2026 10:00377,0
06.05.2026 09:00570,8
06.05.2026 08:00433,3
06.05.2026 07:00156,2
06.05.2026 06:0055,7
06.05.2026 05:000,0
06.05.2026 04:000,0
06.05.2026 03:000,0
06.05.2026 02:000,0
06.05.2026 01:000,0
06.05.2026 00:000,0
05.05.2026 23:000,0
05.05.2026 22:000,0
05.05.2026 21:000,0
05.05.2026 20:004,7
05.05.2026 19:0026,5
05.05.2026 18:0041,5
05.05.2026 17:0034,5
05.05.2026 16:00214,0
05.05.2026 15:00420,3
05.05.2026 14:00577,5
05.05.2026 13:00843,5
05.05.2026 12:00906,3
05.05.2026 11:00824,3
05.05.2026 10:00691,3
05.05.2026 09:00584,8
05.05.2026 08:00421,2
05.05.2026 07:00223,8
05.05.2026 06:0087,3
05.05.2026 05:000,0
05.05.2026 04:000,0
05.05.2026 03:000,0
05.05.2026 02:000,0
05.05.2026 01:000,0
05.05.2026 00:000,0
04.05.2026 23:000,0
04.05.2026 22:000,0
04.05.2026 21:000,0
04.05.2026 20:003,5
04.05.2026 19:0083,7
04.05.2026 18:00142,3
04.05.2026 17:00331,0
04.05.2026 16:00391,5
04.05.2026 15:00779,0
04.05.2026 14:00704,2
04.05.2026 13:00803,2
04.05.2026 12:00865,3
04.05.2026 11:00774,5
04.05.2026 10:00618,2
04.05.2026 09:00585,5
04.05.2026 08:00243,0
04.05.2026 07:00127,0
04.05.2026 06:0036,5
04.05.2026 05:000,0
04.05.2026 04:000,0
04.05.2026 03:000,0
04.05.2026 02:000,0
04.05.2026 01:000,0
04.05.2026 00:000,0
03.05.2026 23:000,0
03.05.2026 22:000,0
03.05.2026 21:000,0
03.05.2026 20:002,7
03.05.2026 19:0051,3
03.05.2026 18:00145,5
03.05.2026 17:00272,5
03.05.2026 16:00560,7
03.05.2026 15:00571,3
03.05.2026 14:00838,5
03.05.2026 13:00872,5
03.05.2026 12:00893,7
03.05.2026 11:00821,2
03.05.2026 10:00745,3
03.05.2026 09:00594,5
03.05.2026 08:00389,2
03.05.2026 07:00214,3
03.05.2026 06:0046,2
03.05.2026 05:000,0
03.05.2026 04:000,0
03.05.2026 03:000,0
03.05.2026 02:000,0
03.05.2026 01:000,0
03.05.2026 00:000,0
02.05.2026 23:000,0
02.05.2026 22:000,0
02.05.2026 21:000,0
02.05.2026 20:006,2
02.05.2026 19:0087,5
02.05.2026 18:00205,5
02.05.2026 17:00407,3
02.05.2026 16:00651,5
02.05.2026 15:00722,2
02.05.2026 14:00823,8
02.05.2026 13:00945,2
02.05.2026 12:00932,5
02.05.2026 11:00875,0
02.05.2026 10:00766,8
02.05.2026 09:00619,8
02.05.2026 08:00437,2
02.05.2026 07:00241,2
02.05.2026 06:0072,2
02.05.2026 05:000,0
02.05.2026 04:000,0
02.05.2026 03:000,0
02.05.2026 02:000,0
02.05.2026 01:000,0
02.05.2026 00:000,0
Ihre Auswahl wurde erfolgreich in den Download-Korb gelegt.